| time (UTC) | temp F | wind direction | speed MPH | gust MPH | rain 1hr in | rain 24hr in | rain mn in | humidity % | barometer mb |
| 20260507191600 | 52 | 0 | 1.0 | 8.0 | 0.00 | 0.00 | 0.00 | 73 | 1011.9 |
| 20260507190106 | 52 | 83 | 1.0 | 4.0 | 0.00 | 0.00 | 0.00 | 72 | 1011.8 |
| 20260507184609 | 52 | 59 | 0.0 | 3.0 | 0.00 | 0.00 | 0.00 | 70 | 1011.9 |
| 20260507183107 | 53 | 59 | 0.0 | 7.0 | 0.00 | 0.00 | 0.00 | 69 | 1011.8 |
| 20260507181601 | 53 | 135 | 2.0 | 6.0 | 0.00 | 0.00 | 0.00 | 68 | 1011.8 |
| 20260507180107 | 53 | 0 | 1.0 | 7.0 | 0.00 | 0.00 | 0.00 | 66 | 1011.7 |
| 20260507174553 | 54 | 107 | 2.0 | 8.0 | 0.00 | 0.00 | 0.00 | 65 | 1011.8 |
| 20260507173057 | 54 | 105 | 3.0 | 9.0 | 0.00 | 0.00 | 0.00 | 65 | 1011.9 |
| 20260507171602 | 55 | 0 | 0.0 | 11.0 | 0.00 | 0.00 | 0.00 | 65 | 1011.8 |
| 20260507170058 | 55 | 105 | 3.0 | 11.0 | 0.00 | 0.00 | 0.00 | 65 | 1011.8 |
| 20260507164554 | 54 | 91 | 3.0 | 8.0 | 0.00 | 0.00 | 0.00 | 66 | 1011.9 |
| 20260507163054 | 54 | 84 | 2.0 | 7.0 | 0.00 | 0.00 | 0.00 | 67 | 1011.9 |
| 20260507161600 | 53 | 148 | 1.0 | 7.0 | 0.00 | 0.00 | 0.00 | 68 | 1011.9 |
| 20260507160100 | 53 | 90 | 1.0 | 5.0 | 0.00 | 0.00 | 0.00 | 67 | 1012.1 |
| 20260507154555 | 53 | 122 | 1.0 | 9.0 | 0.00 | 0.01 | 0.00 | 67 | 1012.1 |
| 20260507153058 | 54 | 132 | 1.0 | 7.0 | 0.00 | 0.01 | 0.00 | 67 | 1012.2 |
| 20260507151551 | 54 | 153 | 3.0 | 8.0 | 0.00 | 0.01 | 0.00 | 66 | 1012.2 |
| 20260507150057 | 54 | 0 | 1.0 | 6.0 | 0.00 | 0.01 | 0.00 | 68 | 1012.2 |
| 20260507144556 | 55 | 159 | 2.0 | 8.0 | 0.00 | 0.04 | 0.00 | 68 | 1012.3 |
| 20260507143105 | 55 | 221 | 2.0 | 8.0 | 0.00 | 0.04 | 0.00 | 67 | 1012.4 |
| 20260507141556 | 56 | 156 | 2.0 | 9.0 | 0.00 | 0.04 | 0.00 | 68 | 1012.5 |
| 20260507140105 | 56 | 171 | 4.0 | 8.0 | 0.00 | 0.04 | 0.00 | 69 | 1012.6 |
| 20260507134553 | 55 | 170 | 3.0 | 8.0 | 0.00 | 0.07 | 0.00 | 69 | 1012.7 |
| 20260507133058 | 54 | 201 | 0.0 | 9.0 | 0.00 | 0.07 | 0.00 | 71 | 1012.7 |
| 20260507131559 | 53 | 0 | 0.0 | 4.0 | 0.00 | 0.07 | 0.00 | 72 | 1012.7 |
| 20260507130055 | 53 | 0 | 0.0 | 5.0 | 0.00 | 0.07 | 0.00 | 72 | 1012.9 |
| 20260507124559 | 52 | 230 | 0.0 | 8.0 | 0.00 | 0.07 | 0.00 | 72 | 1013.0 |
| 20260507123054 | 53 | 0 | 0.0 | 6.0 | 0.00 | 0.07 | 0.00 | 72 | 1013.0 |
| 20260507121552 | 53 | 205 | 1.0 | 6.0 | 0.00 | 0.07 | 0.00 | 70 | 1013.1 |
| 20260507120053 | 53 | 0 | 1.0 | 8.0 | 0.00 | 0.07 | 0.00 | 72 | 1013.0 |
| 20260507114554 | 53 | 0 | 3.0 | 8.0 | 0.00 | 0.07 | 0.00 | 75 | 1013.0 |
| 20260507113054 | 53 | 149 | 2.0 | 9.0 | 0.00 | 0.07 | 0.00 | 79 | 1013.1 |
| 20260507111553 | 53 | 225 | 2.0 | 9.0 | 0.00 | 0.07 | 0.00 | 80 | 1013.1 |
| 20260507110057 | 53 | 196 | 3.0 | 9.0 | 0.00 | 0.07 | 0.00 | 80 | 1013.0 |
| 20260507104555 | 52 | 165 | 3.0 | 8.0 | 0.00 | 0.07 | 0.00 | 83 | 1013.1 |
| 20260507103055 | 52 | 167 | 2.0 | 8.0 | 0.00 | 0.07 | 0.00 | 85 | 1013.2 |
| 20260507101604 | 52 | 90 | 1.0 | 7.0 | 0.00 | 0.07 | 0.00 | 87 | 1013.2 |
| 20260507094600 | 51 | 0 | 1.0 | 6.0 | 0.00 | 0.07 | 0.00 | 89 | 1013.2 |
| 20260507093100 | 50 | 161 | 2.0 | 6.0 | 0.00 | 0.07 | 0.00 | 90 | 1013.1 |
| 20260507091603 | 49 | 0 | 0.0 | 6.0 | 0.00 | 0.07 | 0.00 | 90 | 1013.1 |
| 20260507090110 | 49 | 0 | 1.0 | 3.0 | 0.00 | 0.07 | 0.00 | 91 | 1013.1 |
| 20260507084554 | 49 | 0 | 1.0 | 8.0 | 0.00 | 0.07 | 0.00 | 90 | 1013.1 |
| 20260507083102 | 49 | 159 | 2.0 | 7.0 | 0.00 | 0.07 | 0.00 | 91 | 1013.1 |
| 20260507081558 | 49 | 119 | 1.0 | 6.0 | 0.00 | 0.07 | 0.00 | 91 | 1013.2 |
| 20260507080057 | 48 | 151 | 1.0 | 6.0 | 0.00 | 0.07 | 0.00 | 91 | 1013.0 |
| 20260507074559 | 48 | 138 | 2.0 | 8.0 | 0.00 | 0.07 | 0.00 | 91 | 1012.9 |
| 20260507073103 | 48 | 122 | 1.0 | 9.0 | 0.00 | 0.07 | 0.00 | 91 | 1012.9 |
| 20260507071600 | 48 | 0 | 2.0 | 5.0 | 0.00 | 0.07 | 0.00 | 92 | 1012.7 |
| 20260507070135 | 48 | 0 | 1.0 | 6.0 | 0.00 | 0.07 | 0.00 | 91 | 1012.5 |
| 20260507064553 | 47 | 152 | 1.0 | 5.0 | 0.00 | 0.07 | 0.00 | 92 | 1012.6 |
| 20260507063102 | 47 | 137 | 0.0 | 3.0 | 0.00 | 0.07 | 0.00 | 92 | 1012.5 |
| 20260507061552 | 47 | 145 | 0.0 | 2.0 | 0.00 | 0.07 | 0.00 | 92 | 1012.3 |
| 20260507060053 | 46 | 145 | 0.0 | 2.0 | 0.00 | 0.07 | 0.00 | 92 | 1012.3 |
| 20260507054604 | 46 | 0 | 0.0 | 2.0 | 0.00 | 0.07 | 0.00 | 91 | 1012.2 |
| 20260507053057 | 45 | 0 | 0.0 | 2.0 | 0.00 | 0.07 | 0.00 | 91 | 1012.1 |
| 20260507051555 | 45 | 0 | 0.0 | 1.0 | 0.00 | 0.07 | 0.00 | 91 | 1012.0 |
| 20260507050053 | 45 | 112 | 0.0 | 3.0 | 0.00 | 0.07 | 0.00 | 91 | 1012.1 |
| 20260507044556 | 44 | 70 | 0.0 | 3.0 | 0.00 | 0.07 | 0.00 | 91 | 1012.0 |
| 20260507043056 | 44 | 0 | 0.0 | 3.0 | 0.00 | 0.07 | 0.00 | 91 | 1012.0 |
| 20260507041554 | 44 | 98 | 1.0 | 2.0 | 0.00 | 0.07 | 0.00 | 91 | 1012.0 |
| 20260507040055 | 44 | 98 | 0.0 | 2.0 | 0.00 | 0.07 | 0.00 | 91 | 1012.0 |
| 20260507034554 | 44 | 98 | 0.0 | 2.0 | 0.00 | 0.07 | 0.00 | 91 | 1012.0 |
| 20260507033055 | 44 | 0 | 0.0 | 2.0 | 0.00 | 0.07 | 0.00 | 91 | 1011.9 |
| 20260507031555 | 44 | 0 | 1.0 | 3.0 | 0.00 | 0.07 | 0.00 | 91 | 1012.0 |
| 20260507030108 | 44 | 0 | 0.0 | 3.0 | 0.00 | 0.07 | 0.00 | 90 | 1012.0 |
| 20260507024600 | 45 | 71 | 0.0 | 4.0 | 0.00 | 0.07 | 0.00 | 91 | 1011.9 |
| 20260507023054 | 45 | 120 | 0.0 | 3.0 | 0.00 | 0.07 | 0.00 | 91 | 1011.9 |
| 20260507021615 | 45 | 83 | 1.0 | 3.0 | 0.00 | 0.07 | 0.00 | 91 | 1012.0 |
| 20260507014612 | 45 | 0 | 1.0 | 3.0 | 0.00 | 0.07 | 0.00 | 91 | 1012.0 |
| 20260507013056 | 44 | 96 | 1.0 | 4.0 | 0.00 | 0.07 | 0.00 | 91 | 1012.0 |
| 20260507011554 | 44 | 90 | 1.0 | 4.0 | 0.00 | 0.07 | 0.00 | 91 | 1011.9 |
| 20260507010105 | 44 | 77 | 1.0 | 3.0 | 0.00 | 0.07 | 0.00 | 90 | 1012.0 |
| 20260507004553 | 44 | 0 | 1.0 | 3.0 | 0.00 | 0.07 | 0.00 | 90 | 1012.0 |
| 20260507003051 | 44 | 98 | 1.0 | 4.0 | 0.00 | 0.07 | 0.00 | 91 | 1012.1 |
| 20260507001553 | 44 | 0 | 1.0 | 3.0 | 0.00 | 0.07 | 0.00 | 90 | 1012.3 |
| 20260507000051 | 45 | 135 | 0.0 | 2.0 | 0.00 | 0.07 | 0.00 | 90 | 1012.4 |
| 20260506234555 | 45 | 107 | 0.0 | 3.0 | 0.00 | 0.07 | 0.00 | 90 | 1012.5 |
| 20260506233055 | 46 | 107 | 0.0 | 3.0 | 0.00 | 0.07 | 0.00 | 91 | 1012.3 |
| 20260506231554 | 46 | 107 | 0.0 | 4.0 | 0.00 | 0.07 | 0.00 | 90 | 1012.5 |
| 20260506230103 | 46 | 151 | 1.0 | 2.0 | 0.00 | 0.07 | 0.00 | 90 | 1012.4 |
| 20260506224556 | 46 | 0 | 0.0 | 2.0 | 0.00 | 0.07 | 0.07 | 90 | 1012.5 |
| 20260506223052 | 46 | 151 | 1.0 | 3.0 | 0.00 | 0.07 | 0.07 | 90 | 1012.5 |
| 20260506221558 | 46 | 0 | 1.0 | 3.0 | 0.00 | 0.07 | 0.07 | 90 | 1012.5 |
| 20260506220056 | 46 | 151 | 1.0 | 3.0 | 0.00 | 0.07 | 0.07 | 90 | 1012.4 |
| 20260506214553 | 47 | 151 | 0.0 | 2.0 | 0.00 | 0.07 | 0.07 | 90 | 1012.4 |
| 20260506213056 | 47 | 151 | 0.0 | 3.0 | 0.00 | 0.07 | 0.07 | 90 | 1012.3 |
| 20260506211555 | 48 | 151 | 0.0 | 3.0 | 0.00 | 0.07 | 0.07 | 90 | 1012.5 |
| 20260506210054 | 48 | 0 | 1.0 | 3.0 | 0.00 | 0.07 | 0.07 | 90 | 1012.4 |
| 20260506204554 | 48 | 151 | 0.0 | 2.0 | 0.00 | 0.07 | 0.07 | 90 | 1012.3 |
| 20260506203055 | 48 | 0 | 0.0 | 0.0 | 0.00 | 0.07 | 0.07 | 90 | 1012.3 |
| 20260506201607 | 48 | 0 | 0.0 | 1.0 | 0.00 | 0.07 | 0.07 | 89 | 1012.2 |
| 20260506200054 | 48 | 0 | 0.0 | 0.0 | 0.00 | 0.07 | 0.07 | 90 | 1012.1 |
| 20260506194555 | 49 | 0 | 0.0 | 0.0 | 0.00 | 0.07 | 0.07 | 90 | 1012.0 |
| 20260506193054 | 48 | 0 | 0.0 | 0.0 | 0.00 | 0.07 | 0.07 | 90 | 1012.0 |